Wind_Speed
48 34 32 41 50 52 52 52 51 49 49 50 46 43 43 43 43 44 48 52 56 59 61 63 64 64 61 58 57 55 54 54 49 39 32 36 41 39 37 33 27 28 31
44 43 52 56 50 49 51 51 49 49 49 44 41 43 43 44 46 50 54 58 61 63 64 65 63 59 55 53 52 50 48 46 42 34 29 33 33 30 27 21 17 19 23
48 52 53 48 50 53 51 47 46 48 45 42 43 44 46 49 52 54 59 62 64 65 64 62 59 54 49 48 46 43 41 40 38 31 26 28 27 23 18 15 16 18 20
48 49 50 50 52 50 48 47 47 43 42 44 45 46 50 54 57 59 62 64 64 64 62 58 53 48 44 42 39 38 37 36 31 25 23 23 22 19 15 14 15 16 19
45 43 46 48 48 47 47 46 43 42 44 45 48 52 56 58 59 60 61 61 60 57 52 47 44 41 38 36 34 33 31 28 24 21 19 19 18 14 13 13 14 16 18
42 43 44 43 44 43 43 42 43 44 46 49 52 55 57 59 60 59 57 55 54 52 48 44 42 39 35 31 28 27 24 22 20 17 16 14 13 11 10 11 13 16 15
43 43 44 42 39 39 40 41 44 46 49 52 54 57 58 57 56 53 52 52 51 49 43 37 34 31 25 21 22 22 20 17 16 15 13 11 9 7 8 9 12 14 12
43 43 41 39 39 39 41 43 46 49 51 53 55 56 54 52 49 47 46 43 42 39 34 31 26 22 19 19 21 20 17 13 13 13 12 11 8 5 6 9 11 11 10
41 41 40 39 40 40 43 46 48 49 50 52 53 52 49 46 43 40 38 39 42 38 31 26 21 18 19 18 17 15 11 10 12 11 11 9 5 6 6 6 7 6 3
39 38 38 38 39 41 44 46 47 48 49 49 49 48 44 41 38 37 40 42 39 30 23 19 17 16 15 13 10 10 11 12 11 12 12 8 7 8 7 9 9 5 2
35 36 36 37 39 42 43 45 47 47 46 46 46 42 39 37 36 36 38 36 28 20 14 11 10 9 8 4 8 13 14 13 12 12 10 9 10 11 12 12 8 3 3
33 35 36 38 41 43 44 45 44 43 43 43 42 40 38 35 32 30 29 27 20 14 12 10 9 7 2 7 12 14 14 13 11 11 10 11 12 12 12 10 7 1 3
32 34 37 40 42 43 43 42 40 40 41 42 41 39 36 28 23 22 23 20 16 15 13 10 8 5 6 10 12 13 13 10 10 11 12 12 13 12 11 10 6 3 6
32 36 39 41 42 41 40 38 37 39 41 40 37 35 28 19 16 19 18 14 13 16 14 11 8 8 8 11 13 11 9 10 11 11 11 11 12 13 13 10 6 6 10
33 37 39 40 40 38 37 36 38 38 38 36 32 28 22 18 16 16 13 9 12 14 12 11 10 10 12 12 13 14 15 15 14 11 9 11 16 18 14 11 8 10 14
35 36 37 37 37 36 37 38 37 36 34 32 28 24 21 17 13 12 11 9 10 11 11 10 11 14 17 18 20 19 17 15 15 13 13 15 16 16 12 10 11 12 13
34 34 35 35 36 37 38 38 36 33 31 30 27 22 17 12 10 12 10 10 9 8 11 11 12 18 19 19 20 18 15 12 12 12 11 10 12 12 9 9 12 14 14
32 33 33 35 37 39 38 35 31 28 28 28 25 20 14 10 9 11 10 9 6 5 10 10 13 19 19 19 18 16 15 13 12 12 11 12 13 12 9 12 17 20 19
31 32 35 38 39 37 34 30 26 25 25 25 23 19 13 9 10 11 11 7 4 5 9 10 13 17 19 18 15 13 13 14 14 12 13 15 15 12 13 18 22 22 21
33 36 38 38 36 32 29 25 22 22 22 23 21 17 11 10 10 10 10 6 4 5 8 11 13 17 19 18 15 12 12 12 10 11 12 14 14 14 19 23 22 20 20
36 37 35 33 30 28 24 21 20 20 21 21 20 17 13 11 11 11 11 8 5 4 6 10 14 16 18 18 16 14 13 9 7 9 9 11 12 15 21 23 22 19 21
34 33 31 29 26 24 21 20 20 20 21 21 20 19 17 17 15 12 12 11 8 6 7 11 14 14 14 15 15 14 10 8 7 7 7 10 12 16 20 21 21 21 21
32 31 29 26 23 22 20 20 21 22 21 20 17 16 17 18 18 15 12 11 10 7 9 12 15 16 14 13 12 11 12 12 9 6 8 10 13 16 18 19 20 21 21
33 32 28 25 23 22 21 21 22 23 23 22 18 14 13 15 17 16 13 12 12 10 10 13 14 15 15 14 12 12 13 11 8 8 9 11 14 15 16 17 16 15 15
35 33 30 27 25 23 23 25 25 25 25 25 22 17 14 14 15 16 15 14 14 13 11 10 11 13 14 14 13 12 10 8 7 8 9 11 13 15 15 15 15 14 13
36 33 32 30 28 26 26 27 28 28 27 27 25 22 19 18 19 19 17 16 17 16 13 10 9 11 13 13 13 12 10 9 8 8 10 12 13 13 13 13 13 13 13
Wind_Direction
280 289 303 307 310 310 308 308 310 311 313 312 309 306 305 305 303 302 300 300 299 298 298 297 296 295 293 290 289 291 291 293 295 292 275 256 255 262 273 276 263 250 249
304 316 323 321 312 309 310 311 313 312 310 309 307 306 306 307 307 304 301 299 299 299 298 298 297 295 292 290 290 289 289 291 291 286 266 254 255 263 272 264 248 238 240
317 313 316 311 307 310 312 313 313 310 309 308 306 308 309 308 306 304 302 301 300 300 300 299 297 294 291 289 288 285 286 288 287 277 252 251 254 264 262 248 237 236 241
318 314 311 311 313 314 315 314 312 310 309 309 309 311 310 308 308 306 304 303 303 303 301 301 299 295 290 287 285 284 286 287 282 265 245 244 253 260 246 241 241 244 242
317 311 310 312 314 314 314 312 310 311 312 312 313 313 312 309 307 306 306 306 305 304 306 308 304 298 290 285 284 285 286 283 273 256 237 238 248 247 237 236 245 252 257
315 312 310 313 313 313 311 311 312 314 316 315 315 313 310 308 308 310 310 308 305 305 307 306 303 298 292 285 282 284 285 278 265 242 226 231 233 238 238 237 247 255 259
315 316 317 316 313 311 310 313 315 317 317 316 317 313 311 311 313 313 310 308 306 306 308 307 303 298 294 284 281 286 287 272 249 223 214 200 215 235 241 236 239 244 251
318 322 321 317 314 314 315 318 319 320 319 318 315 313 315 316 316 314 314 316 317 316 313 310 306 300 295 286 284 284 280 254 219 202 195 196 200 204 222 221 218 235 251
321 321 318 316 317 318 320 321 320 320 318 316 314 317 320 320 320 319 320 322 321 316 309 306 298 291 290 286 281 269 249 209 185 178 176 180 191 200 202 201 203 210 214
318 315 314 316 317 320 322 321 320 318 317 317 320 324 325 325 324 320 321 324 325 320 310 304 298 294 294 287 259 222 195 171 152 156 168 180 191 184 177 164 159 160 97
313 312 312 315 319 322 323 321 320 319 321 325 327 327 327 327 325 325 327 331 333 330 323 316 310 303 302 264 192 177 166 148 144 152 155 157 165 166 163 161 156 135 61
309 309 313 319 323 325 323 322 321 324 328 329 330 329 328 328 332 336 338 339 342 341 338 337 333 325 324 157 163 161 150 144 151 157 159 160 164 166 166 164 159 178 59
308 312 319 323 326 325 324 323 326 329 331 332 331 329 329 331 337 340 340 347 356 359 4 3 0 27 102 139 148 148 147 152 161 168 176 180 180 176 166 153 153 155 111
313 319 323 327 327 325 324 327 332 333 333 334 332 331 334 338 339 337 338 345 358 359 3 12 35 69 105 128 134 138 146 153 158 168 178 187 187 170 155 148 150 139 122
321 324 328 328 327 327 330 334 336 334 334 335 335 336 339 337 338 339 341 348 355 3 20 41 71 86 111 121 127 133 137 143 150 155 151 151 153 151 145 147 145 135 120
326 330 329 328 329 331 334 335 335 336 337 338 339 339 339 337 344 356 359 350 351 12 37 54 75 99 110 118 126 127 130 137 141 138 131 129 136 144 143 145 150 141 125
331 330 329 330 333 335 335 334 335 337 340 344 344 344 345 344 356 7 359 355 351 21 47 52 90 114 115 119 122 122 124 130 143 154 157 146 142 146 142 145 148 136 117
332 332 332 334 336 335 333 334 337 341 346 349 349 352 358 1 10 15 3 356 354 32 44 56 107 125 126 127 127 118 111 113 123 134 144 152 153 149 143 144 144 135 121
337 338 338 337 334 333 335 339 343 347 353 356 357 3 11 19 27 24 10 12 33 57 46 69 119 138 140 138 130 121 114 109 108 104 115 129 132 129 138 143 141 138 132
345 342 338 336 337 341 344 348 352 357 2 5 7 12 26 36 28 22 13 28 67 81 62 80 119 144 152 150 143 141 142 133 105 88 102 120 119 120 135 142 143 142 139
345 340 339 343 348 352 357 2 4 8 13 17 22 28 36 40 34 33 38 55 76 93 84 93 113 137 155 164 163 157 155 144 109 100 102 108 112 123 135 142 147 149 148
344 345 350 354 358 4 10 14 15 16 19 24 32 41 47 45 42 46 52 55 63 84 102 107 110 126 149 165 171 175 178 165 143 123 98 100 111 129 138 145 151 152 151
355 359 2 6 12 16 20 21 21 21 24 27 34 45 51 49 47 49 58 65 70 81 102 116 111 114 130 150 163 169 162 152 143 116 110 109 116 129 138 142 147 153 156
12 13 16 22 25 27 29 28 26 27 29 29 33 42 50 51 48 48 63 73 76 78 91 107 111 109 111 117 129 141 146 146 136 128 126 122 119 123 138 147 150 153 157
24 27 31 33 34 35 34 33 32 33 33 34 39 46 58 58 54 57 63 73 82 85 89 100 108 111 114 119 125 136 149 153 146 142 145 141 133 123 121 131 145 156 163
32 36 38 38 39 38 36 35 35 36 37 39 44 51 61 64 64 65 64 74 87 91 93 99 107 116 119 122 124 127 133 141 145 144 152 160 153 138 124 121 130 146 163
Height
5745 5740 5737 5735 5730 5721 5711 5704 5698 5691 5684 5675 5668 5661 5654 5646 5641 5635 5631 5625 5618 5611 5604 5597 5590 5584 5577 5571 5566 5562 5557 5553 5552 5550 5548 5544 5543 5544 5544 5543 5544 5546 5550
5738 5733 5729 5724 5717 5708 5698 5692 5686 5679 5671 5662 5655 5649 5642 5636 5630 5624 5618 5610 5602 5595 5586 5579 5572 5566 5560 5555 5551 5548 5544 5540 5538 5539 5536 5534 5534 5534 5534 5534 5535 5538 5541
5727 5721 5716 5710 5703 5694 5686 5679 5672 5666 5657 5649 5644 5637 5631 5625 5617 5610 5602 5594 5586 5577 5568 5561 5555 5550 5545 5540 5537 5534 5532 5528 5526 5526 5525 5524 5526 5526 5527 5528 5529 5532 5534
5718 5711 5704 5697 5690 5682 5675 5668 5661 5653 5646 5640 5634 5625 5618 5612 5603 5595 5587 5578 5568 5558 5549 5542 5537 5533 5530 5527 5524 5522 5520 5518 5516 5515 5515 5517 5518 5520 5522 5522 5525 5526 5528
5706 5697 5691 5683 5678 5671 5664 5658 5652 5643 5637 5629 5622 5613 5605 5598 5589 5580 5571 5561 5551 5543 5535 5528 5523 5518 5516 5514 5513 5512 5510 5508 5508 5507 5509 5511 5512 5514 5516 5518 5521 5521 5523
5694 5686 5679 5672 5666 5660 5655 5649 5642 5633 5625 5618 5610 5602 5593 5584 5574 5564 5555 5546 5536 5528 5523 5517 5511 5507 5505 5504 5504 5504 5502 5501 5501 5502 5504 5506 5508 5510 5512 5515 5517 5517 5519
5683 5676 5671 5664 5658 5653 5646 5638 5631 5623 5615 5607 5597 5589 5581 5571 5561 5551 5541 5531 5522 5515 5511 5507 5502 5498 5496 5497 5498 5497 5496 5495 5496 5498 5500 5503 5505 5507 5509 5511 5512 5514 5516
5674 5668 5661 5656 5650 5644 5637 5629 5621 5613 5604 5595 5586 5579 5569 5559 5549 5540 5530 5520 5512 5505 5502 5499 5495 5492 5491 5492 5492 5492 5491 5491 5493 5495 5498 5502 5504 5506 5507 5508 5510 5511 5512
5665 5659 5655 5650 5643 5636 5628 5621 5613 5604 5594 5585 5578 5569 5559 5548 5539 5530 5523 5514 5506 5499 5494 5491 5489 5488 5486 5486 5486 5486 5487 5489 5491 5495 5498 5501 5504 5506 5507 5508 5509 5510 5512
5659 5654 5649 5642 5636 5628 5621 5613 5604 5595 5586 5578 5569 5559 5549 5540 5531 5524 5516 5508 5499 5491 5487 5485 5483 5482 5481 5481 5481 5483 5485 5488 5491 5494 5498 5501 5504 5506 5507 5508 5509 5510 5513
5654 5649 5643 5636 5628 5620 5612 5604 5595 5586 5577 5568 5559 5550 5542 5534 5526 5518 5509 5501 5493 5488 5484 5481 5480 5478 5478 5477 5479 5482 5485 5488 5491 5494 5498 5501 5504 5506 5508 5509 5511 5512 5514
5648 5642 5635 5628 5620 5611 5603 5595 5587 5578 5569 5559 5550 5542 5534 5527 5521 5513 5506 5499 5493 5488 5484 5481 5479 5477 5476 5477 5479 5483 5486 5489 5492 5495 5499 5502 5505 5508 5510 5512 5514 5515 5515
5641 5634 5627 5619 5611 5603 5595 5588 5580 5571 5562 5552 5543 5535 5527 5521 5516 5511 5505 5498 5492 5488 5485 5482 5480 5478 5477 5479 5481 5485 5488 5490 5493 5496 5500 5503 5506 5510 5513 5515 5516 5517 5517
5634 5627 5620 5611 5604 5597 5590 5582 5573 5564 5555 5546 5537 5530 5523 5517 5513 5508 5502 5497 5493 5490 5487 5484 5482 5481 5481 5482 5484 5487 5489 5492 5495 5498 5502 5504 5508 5512 5516 5518 5519 5519 5520
5628 5621 5613 5605 5598 5591 5583 5574 5566 5558 5550 5541 5533 5526 5520 5515 5511 5506 5501 5498 5495 5492 5489 5487 5485 5485 5485 5486 5488 5490 5492 5495 5498 5501 5503 5506 5509 5514 5518 5520 5521 5522 5524
5622 5615 5607 5600 5593 5585 5576 5568 5560 5553 5544 5536 5529 5523 5517 5512 5508 5505 5502 5499 5497 5495 5492 5490 5489 5489 5490 5491 5493 5495 5497 5499 5502 5505 5507 5510 5514 5518 5520 5521 5522 5525 5528
5617 5611 5603 5596 5587 5579 5570 5562 5555 5548 5540 5532 5526 5520 5514 5510 5508 5505 5503 5501 5499 5497 5494 5493 5492 5493 5495 5496 5498 5500 5501 5503 5506 5509 5511 5514 5517 5520 5522 5523 5525 5528 5532
5614 5606 5599 5590 5582 5573 5565 5557 5550 5543 5537 5530 5523 5517 5513 5510 5507 5505 5503 5501 5500 5499 5497 5496 5495 5497 5500 5502 5503 5505 5507 5509 5511 5513 5515 5517 5520 5522 5524 5527 5530 5533 5537
5609 5602 5593 5585 5576 5568 5560 5552 5546 5540 5535 5528 5522 5517 5513 5510 5508 5507 5505 5502 5501 5501 5500 5499 5498 5501 5504 5506 5508 5510 5512 5514 5516 5518 5520 5521 5523 5525 5527 5531 5535 5540 5543
5605 5597 5589 5580 5571 5562 5555 5549 5544 5539 5534 5528 5522 5517 5514 5512 5510 5508 5505 5503 5502 5502 5503 5502 5502 5504 5507 5509 5512 5514 5516 5518 5520 5522 5523 5525 5527 5529 5531 5535 5539 5544 5548
5602 5593 5584 5575 5566 5559 5553 5548 5544 5539 5534 5529 5524 5519 5516 5514 5512 5509 5507 5505 5505 5505 5505 5505 5506 5507 5509 5512 5515 5518 5520 5522 5524 5525 5527 5528 5530 5532 5534 5539 5544 5548 5551
5599 5590 5580 5572 5565 5558 5553 5549 5545 5540 5536 5531 5526 5522 5519 5516 5514 5512 5510 5509 5508 5508 5509 5509 5510 5511 5512 5515 5518 5521 5524 5526 5528 5530 5531 5532 5533 5536 5539 5543 5548 5552 5556
5597 5587 5578 5570 5565 5559 5555 5551 5547 5543 5538 5533 5529 5526 5523 5521 5518 5515 5514 5512 5512 5512 5513 5513 5514 5515 5516 5518 5520 5523 5526 5529 5531 5533 5534 5536 5538 5540 5544 5548 5551 5555 5559
5596 5586 5578 5572 5567 5562 5558 5554 5550 5545 5540 5536 5531 5528 5526 5524 5522 5519 5517 5516 5516 5516 5516 5517 5518 5519 5520 5522 5524 5526 5529 5532 5534 5536 5538 5541 5543 5545 5548 5551 5555 5558 5562
5597 5588 5581 5576 5571 5567 5563 5558 5554 5549 5544 5539 5534 5530 5528 5527 5525 5523 5521 5520 5520 5520 5521 5522 5522 5523 5525 5526 5528 5531 5533 5535 5537 5540 5542 5544 5547 5549 5551 5553 5556 5560 5564
5601 5594 5588 5582 5577 5572 5568 5563 5558 5553 5548 5543 5539 5535 5533 5531 5529 5527 5526 5525 5524 5525 5526 5527 5528 5528 5529 5531 5533 5535 5536 5538 5540 5542 5544 5547 5549 5552 5554 5556 5559 5562 5565